Weather in Ugnouralsk

Russia / Chelyabinsk Oblast     54°26′32″N   61°16′05″E
temp.,
°C
wind,
m/s
gust,
m/s
humid.,
%
clouds,
%
prec.,
mm/h
press.,
hPa
HPBL,
m
17 may, mon
mon1723:00+23wsw353928 1.4 101955
02:00+17sw496560 0.0 1021145
05:00+17wsw34640 0.0 102053
08:00+23w464813 0.0 1020244
11:00+29w45260 0.0 10192121
14:00+31w68225 0.0 10183745
17:00+29w792799 0.1 10182831
20:00+25nw45395 0.1 101772
18 may, tue
tue1823:00+22wnw344415 0.1 101746
02:00+19wnw344926 0.0 101753
05:00+18nw33568 0.1 101723
08:00+21wnw51156100 0.4 1017406
11:00+27nw783721 0.4 10151158
14:00+28nw79290 0.0 10152641
17:00+27nnw79284 0.0 10142706
20:00+20ne712595 0.0 1017857
19 may, wed
wed1923:00+17ne81158100 0.0 1020823
02:00+12nne611730 0.0 1022568
05:00+9nne510840 0.0 1024520
08:00+13ne68635 0.0 1025830
11:00+17ne67456 0.0 10241247
14:00+20ene55355 0.0 10241476
17:00+20ene45345 0.0 10231598
20:00+17ne344718 0.0 102472
20 may, thu
thu2023:00+13e33534 0.0 102428
02:00+11se33595 0.0 102527
05:00+10sw22595 0.0 102521
08:00+16sw23474 0.0 1025317
11:00+20wsw22340 0.0 10241142
14:00+23sw33280 0.0 10231616
17:00+24wsw33260 0.0 10211678
20:00+21wsw22380 0.0 102011
21 may, fri
fri2123:00+16wsw33434 0.0 102124
02:00+14w34474 0.0 102045
05:00+13w33510 0.0 102124
08:00+19w34420 0.0 1021249
11:00+24wnw11290 0.0 1020939
14:00+27s11235 0.0 10191946
17:00+27w12215 0.0 10182342
20:00+24n12325 0.0 101811